Flag for Germany Weather past 2 weeks in Bad Mergentheim, Baden-Württemberg, Germany

Now
61 °F

Passing clouds.


Feels Like: 61 °F
Forecast: 54 / 73 °F
Wind: 3 mph from East

Location: Niederstetten

Current Time: Sep 17, 2014 at 10:39:13 PM

Latest Report: Sep 17, 2014 at 9:20 PM


Visibility: N/A

Pressure: 29.92 "Hg

Humidity: 88%

Dew point: 57 °F

Location of Bad MergentheimLocation

Historic Weather in Bad Mergentheim — Graph

°F

Bad Mergentheim temperature yesterday

Maximum temperature yesterday: 66 °F (at 2:20 PM)
Minimum temperature yesterday: 54 °F (at 12:20 AM)
Average temperature yesterday: 59 °F

Past Weeks' High & Low Weather Summary

 TemperatureHumidityPressure
High75 °F (Sep 6, 3:20 PM)100% (Sep 3, 7:20 AM)30.18 "Hg (Sep 3, 7:20 AM)
Low46 °F (Sep 11, 6:20 AM)53% (Sep 9, 5:20 PM)29.92 "Hg (Sep 6, 3:20 PM)
Average60 °F87%30.04 "Hg
* Reported Sep 2 9:20 PM — Sep 17 9:20 PM, Bad Mergentheim, Weather by CustomWeather, © 2014

Note: Actual official high and low records may vary slightly from our data, if they occured in-between our weather recording intervals... More about our weather records

Advertising

Bad Mergentheim weather history for previous 24 hours

 ConditionsComfort  
Time TempWeatherWind HumidityBarometerVisibility
9:20 PM
Sep 17
61 °FPassing clouds.3 mph88%29.92 "HgN/A
8:20 PM63 °FPartly sunny.5 mph83%29.92 "HgN/A
7:20 PM66 °FPartly sunny.3 mph78%29.92 "HgN/A
6:20 PM70 °FPartly sunny.7 mph64%29.92 "HgN/A
5:20 PM70 °FScattered clouds.8 mph64%29.92 "HgN/A
5:00 PM70 °FScattered clouds.8 mph64%29.92 "HgN/A
4:20 PM70 °FPassing clouds.7 mph64%29.92 "HgN/A
3:20 PM68 °FPassing clouds.6 mph73%29.95 "HgN/A
2:20 PM66 °FPassing clouds.7 mph78%29.95 "HgN/A
1:20 PM63 °FPassing clouds.8 mph88%29.95 "HgN/A
1:00 PM63 °FScattered clouds.8 mph88%29.95 "Hg5 mi
12:20 PM59 °FPartly sunny.8 mph94%29.98 "Hg4 mi
11:50 AM59 °FFog.8 mph94%29.98 "Hg3 mi
11:20 AM57 °FFog.8 mph94%29.98 "Hg2 mi
10:50 AM59 °FFog.8 mph94%29.98 "Hg2 mi
10:20 AM59 °FPartly sunny.10 mph94%29.95 "Hg4 mi
9:20 AM59 °FPassing clouds.9 mph88%29.95 "Hg6 mi
8:50 AM57 °FPassing clouds.8 mph94%29.95 "Hg5 mi
8:20 AM55 °FPassing clouds.7 mph94%29.95 "Hg4 mi
7:20 AM54 °FFog.7 mph94%29.98 "Hg3 mi
6:50 AM54 °FFog.6 mph100%29.98 "Hg2 mi
6:20 AM54 °FFog.5 mph100%29.98 "Hg1 mi
5:20 AM54 °FCool.5 mph100%29.95 "Hg4 mi
4:20 AM54 °FCool.6 mph100%29.95 "Hg4 mi
3:20 AM54 °FCool.6 mph100%29.98 "Hg4 mi
2:20 AM54 °FCool.7 mph100%29.98 "Hg4 mi
1:20 AM54 °FCool.6 mph94%29.98 "Hg5 mi
12:20 AM54 °FCool.5 mph100%30.01 "Hg5 mi
11:20 PM
Sep 16
54 °FPassing clouds.5 mph100%29.98 "HgN/A
10:20 PM54 °FPassing clouds.6 mph100%30.01 "HgN/A
Weather by CustomWeather, © 2014

See weather overviewHow to use our weather pages